www.pogodaiklimat.ru

Погода и климат >> Архив погоды >> Индия >> Jorhat


ПОГОДА в Jorhat

  • Прогноз погоды в Jorhat
  • Монитор погоды в Jorhat
  • Климат города

АРХИВ ПОГОДЫ в Jorhat

Время (UTC), дата Ветер
(напр.,м/с)
 
Видим.   Явления Облачность Т
(С)
Тd
(С)
f
(%)
Тe
(С)
Тes
(С)
Комфортность P
(гПа)
Po
(гПа)
Тmin
(С)
Tmax
(С)
R
(мм)
R24
(мм)
S
(см)
03 18.04 ЮЗ 1 4000 м 4/0
[Ci fib]
+27.0 +21.3 71 +34 +48 очень
душно
1009.6 1010.0 +21.4
06 18.04 З 2 4000 м 9/5 600 м
[Sc diur, vesp Ac trans]
+27.0 +21.3 71 +34 +40 очень
душно
1009.6 1010.0
09 18.04 ЮВ 1 2000 м слабый дождь {гроза} 10/8 540 м
[Cb calv As op]
+25.4 +22.1 82 +33 +33 очень
душно
1006.1 1006.0 0.0
12 18.04 штиль 0 4000 м слабый дождь 9/6 600 м
[Cb calv Ac trans]
+21.2 +20.6 96 +26 +26 душно 1005.1 1005.0 +27.8 20
03 19.04 В 1 4000 м 1/1 750 м
[Cu hum]
+23.4 +20.3 83 +31 +44 очень
душно
1008.7 1009.0 +18.3 20
06 19.04 ЮЗ 1 4000 м 6/4 600 м
[Sc diur, vesp Ac trans]
+28.0 +21.8 69 +36 +48 очень
душно
1007.4 1007.0
09 19.04 штиль 0 4000 м 6/5 600 м
[Sc diur, vesp Ac trans]
+29.6 +22.2 64 +38 +44 очень
душно
1004.0 1004.0
12 19.04 ЮЗ 1 4000 м слабый дождь 10/6 600 м
[Sc diur, vesp As op]
+26.4 +21.9 76 +34 +34 очень
душно
1004.3 1004.0 +30.5 0.0
03 20.04 Ю 1 4000 м 9/5 600 м
[Sc diur, vesp Ac trans]
+24.0 +21.9 88 +31 +35 очень
душно
1008.4 1008.0 +21.6 0.2
06 20.04 ЮВ 1 4000 м {дождь} 10/6 600 м
[Sc diur, vesp As op]
+26.0 +21.2 75 +33 +35 очень
душно
1008.4 1008.0 0.0
09 20.04 С 1 4000 м {дождь} 9/6 600 м
[Sc diur, vesp Ac trans]
+25.2 +21.9 82 +32 +35 очень
душно
1005.5 1006.0 0.5
12 20.04 штиль 0 4000 м 9/6 600 м
[Sc diur, vesp Ac trans]
+24.8 +21.8 83 +32 +32 очень
душно
1004.2 1004.0 +26.4 0.5
03 21.04 СВ 1 2000 м слабый дождь 10/8 360 м
[Cb calv As op]
+22.0 +22.0 100 +29 +30 очень
душно
1007.8 1008.0 +20.6 13
06 21.04 СВ 1 2000 м {дождь} 10/6 360 м
[Frnb As op]
+22.6 +21.7 95 +30 +32 очень
душно
1007.8 1008.0 4
09 21.04 СВ 1 4000 м {дождь} 10/6 600 м
[Sc diur, vesp As op]
+24.2 +22.4 90 +32 +33 очень
душно
1005.1 1005.0 4
12 21.04 СВ 1 4000 м 8/5 600 м
[Sc diur, vesp Ac trans]
+23.4 +21.9 91 +32 +32 очень
душно
1004.2 1004.0 +24.9 6
03 22.04 СВ 1 4000 м 10/8 360 м
[St As op]
+23.4 +21.9 91 +32 +32 очень
душно
1008.7 1009.0 +20.8 10
06 22.04 СЗ 2 4000 м 9/6 600 м
[Sc diur, vesp Ac trans]
+26.6 +22.5 78 +35 +40 очень
душно
1008.0 1008.0
09 22.04 СЗ 1 4000 м 5/4 600 м
[Sc diur, vesp Ac trans]
+28.4 +23.1 73 +38 +44 очень
душно
1005.1 1005.0
12 22.04 СВ 1 4000 м {дождь} 9/5 600 м
[Sc diur, vesp Ac trans]
+23.8 +21.4 86 +30 +30 очень
душно
1004.2 1004.0 +28.7 0.0
03 23.04 В 1 4000 м 10/8 360 м
[Frnb As op]
+23.4 +21.6 90 +32 +32 очень
душно
1010.0 1010.0 +21.2 9
06 23.04 СЗ 1 4000 м {дождь} 10/6 540 м
[Sc diur, vesp Ac As]
+24.0 +22.2 90 +31 +34 очень
душно
1009.9 1010.0 2
09 23.04 В 2 4000 м 9/5 600 м
[Sc diur, vesp Ac trans]
+25.6 +22.0 81 +33 +36 очень
душно
1008.4 1008.0 2
12 23.04 СВ 2 4000 м 3/0 600 м
[Ac trans Ci fib]
+24.4 +21.7 85 +31 +31 очень
душно
1006.1 1006.0 +26.2 2
03 24.04 С 1 4000 м 3/1 750 м
[Cu hum Ac trans]
+26.0 +21.2 75 +33 +45 очень
душно
1010.1 1010.0 +19.8 2
06 24.04 СЗ 1 4000 м 6/4 600 м
[Sc diur, vesp Ac trans]
+28.4 +21.9 68 +37 +48 очень
душно
1009.2 1009.0
09 24.04 В 1 4000 м 5/4 600 м
[Sc diur, vesp Ac trans]
+29.2 +21.1 62 +37 +43 очень
душно
1006.3 1006.0
12 24.04 В 1 4000 м 4/0
[Ac trans Ci fib]
+29.0 +21.2 63 +37 +37 очень
душно
1004.6 1005.0 +30.0

 

Местоположение метеостанции Jorhat (Assam, Индия): широта 26.75 долгота 94.20 высота над уровнем моря 87 м.

В архиве по умолчанию представлена погода в Jorhat за последнюю неделю. Архивные данные за месяц целиком и за предыдущие месяцы, начиная с января 2011 года, Вы можете получить, выбрав интересующий диапазон дат из раскрывающегося списка и нажав кнопку "Ввод!".


*Определитесь, кто Вы:
робот инопланетянин человек

Внимание! Время в таблицах - всемирное. Для получения местного времени необходимо прибавить поправку, которая в Jorhat равна 5.5 ч.

Смотрите также архив погоды в соседних городах и на ближайших метеорологических станциях:

Погода в Golaghat (Assam, Индия) (34 км)
Погода в North Lakhimpur (Assam, Индия) (54 км)
Погода в Itanagar (Arunachal Pradesh, Индия) (69 км)
Погода в Dibrugarh (Assam, Индия) (115 км)
Погода в Kohima (Nagaland, Индия) (125 км)
Погода в Tezpur (Assam, Индия) (142 км)
Погода в Lumding (Assam, Индия) (151 км)
Погода в Hkamti (Мьянма) (171 км)
Погода в Chaparmukh (Assam, Индия) (178 км)
Погода в Mazbat (Assam, Индия) (184 км)

Пояснения к столбцам:

Ветер - указаны скорость ветра в м/с - средняя за 10 мин, порывы в срок и между сроками (в фигурных скобках) и направление, откуда дует ветер: С - северный, СВ - северо-восточный, В - восточный, ЮВ - юго-восточный, Ю - южный, ЮЗ - юго-западный, З - западный, СЗ - северо-западный.
Видимость - горизонтальная дальность видимости в метрах или километрах. При видимости от 1 до 10 км при отсутствии осадков обычно наблюдается дымка, при ухудшении видимости до 1 км и менее - туман. В сухую погоду видимость может ухудшаться дымом, пылью или мглою.
Явления - указаны атмосферные явления, наблюдавшиеся в срок или в последний час перед сроком; фигурными скобками обозначены явления, наблюдавшиеся между сроками (за 1-3 часа до срока); квадратными скобками обозначены град или гололедные отложения с указанием их диаметра в мм.
Облачность - указаны через наклонную черту общая и нижняя облачность в баллах и высота нижней границы облаков в метрах; квадратными скобками обозначены формы облаков: Ci - перистые, Cs - перисто-слоистые, Cc - перисто-кучевые, Ac - высококучевые, As - высокослоистые, Sc - слоисто-кучевые, Ns - слоисто-дождевые, Cu - кучевые, Cb - кучево-дождевые. Подробнее классификацию облаков см. в Атласе облаков (PDF).
T - Температура воздуха - температура, измеренная на высоте 2 м над землей.
Td - Температура точки росы - температура, при понижении до которой содержащийся в воздухе водяной пар достигнет насыщения.
f - Относительная влажность воздуха - влажноcть воздуха, измеренная на высоте 2 м над землей.
Te - Эффективная температура - температура, которую ощущает одетый по сезону человек в тени. Характеристика душности погоды. При расчете учитывается влияние влажности воздуха и скорости ветра на теплоощущения человека.
Tes - Эффективная температура на солнце - температура, которую ощущает человек, с поправкой на солнечный нагрев. Характеристика знойности погоды. Зависит от высоты солнца над горизонтом, облачности и скорости ветра. Ночью, в пасмурную погоду, а также при ветре 12 м/с и более поправка равна нулю.
P - Атмосферное давление - приведенное к уровню моря атмосферное давление.
Po - Атмосферное давление - измеренное на уровне метеостанции атмосферное давление.
Tmin - Минимальная температура - минимум температуры воздуха на высоте 2 м над землей.
Tmax - Максимальная температура - максимум температуры воздуха на высоте 2 м над землей.
R - Количество осадков - Количество выпавших осадков за период времени, мм. При наведении курсора мыши на число - период времени, за который выпало указанное количество осадков.
R24 - Количество осадков - Количество выпавших осадков за 24 часа, мм.
S - Снежный покров - Высота снежного покрова, см. При наведении курсора мыши на число - состояние снежного покрова и степень покрытия местности в баллах.